Regional Weather Roundup
Issued by NWS

Home | Current Version | Previous Version | Text Only | Print | Product List | Glossary On
Versions: 1 2 3 4 5 6 7 8 9 10 11 12 13 14 15 16 17 18 19 20 21 22 23 24 25 26 27 28 29 30 31 32 33 34 35 36 37 38 39 40 41 42 43 44 45 46 47 48 49 50
000
ASUS46 KSEW 061810
RWRWA

WASHINGTON REGIONAL WEATHER ROUNDUP
NATIONAL WEATHER SERVICE SEATTLE WA
1000 AM PST FRI MAR 06 2015

NOTE:"FAIR" INDICATES FEW OR NO CLOUDS BELOW 12,000 FEET WITH NO
SIGNIFICANT WEATHER AND/OR OBSTRUCTIONS TO VISIBILITY.

WAZ505-507>509-061900-
SEATTLE, TACOMA, EVERETT, AND VICINITY

CITY           SKY/WX    TMP DP  RH WIND       PRES   REMARKS
EVERETT        CLOUDY    45  35  68 NE5       30.43R
6HR MIN TEMP:  38; 6HR MAX TEMP:  45;

BOEING FIELD   PTSUNNY   49  37  63 CALM      30.44R
6HR MIN TEMP:  39; 6HR MAX TEMP:  49;

RENTON         PTSUNNY   45  37  73 NW3       30.44R
6HR MIN TEMP:  36; 6HR MAX TEMP:  45;

SEATAC AIRPORT PTSUNNY   49  36  61 NE3       30.44R
6HR MIN TEMP:  39; 6HR MAX TEMP:  49;

JBLM-MCCHORD   MOSUNNY   45  41  86 NW2       30.43R
6HR MIN TEMP:  29; 6HR MAX TEMP:  45;

PUYALLUP       FAIR      48  37  66 CALM      30.42S
BREMERTON      MOSUNNY   50  37  62 NE8       30.45R
6HR MIN TEMP:  30; 6HR MAX TEMP:  50;

JBLM-FT LEWIS  MOSUNNY   46  43  87 CALM      30.43R
6HR MIN TEMP:  31; 6HR MAX TEMP:  46;

TACOMA NARROWS MOSUNNY   47  41  80 CALM      30.43R
6HR MIN TEMP:  37; 6HR MAX TEMP:  47;

$$

WAZ001-503-506-510-514-515-061900-
NORTH INTERIOR

CITY           SKY/WX    TMP DP  RH WIND       PRES   REMARKS
BELLINGHAM     CLOUDY    45  36  70 N3        30.44R
6HR MIN TEMP:  32; 6HR MAX TEMP:  45;

FRIDAY HARBOR  PTSUNNY   48  42  80 N8        30.45R
6HR MIN TEMP:  40; 6HR MAX TEMP:  48;

EASTSOUND      CLOUDY    46  43  87 CALM      30.44R
PORT ANGELES   MOSUNNY   49  41  74 VRB6      30.44R
6HR MIN TEMP:  34; 6HR MAX TEMP:  49;

NAS WHIDBEY    CLOUDY    50  42  74 NW5       30.45R
6HR MIN TEMP:  36; 6HR MAX TEMP:  50;

ARLINGTON      CLOUDY    43  34  70 CALM      30.45S
6HR MIN TEMP:  30; 6HR MAX TEMP:  43;

BURLINGTON     SUNNY     45  37  76 NW3       30.45R
$$

WAZ020-022-039-040-504-511-512-061900-
SOUTHWEST INTERIOR

CITY           SKY/WX    TMP DP  RH WIND       PRES   REMARKS
SHELTON        SUNNY     48  38  68 E3        30.41R
6HR MIN TEMP:  27; 6HR MAX TEMP:  48;

OLYMPIA        SUNNY     47  39  74 CALM      30.44R
6HR MIN TEMP:  28; 6HR MAX TEMP:  47;

CHEHALIS       FAIR      45  39  81 CALM      30.43S
KELSO          SUNNY     45  37  76 CALM      30.47S
6HR MIN TEMP:  32; 6HR MAX TEMP:  45;

VANCOUVER      SUNNY     46  38  73 CALM      30.43R
6HR MIN TEMP:  31; 6HR MAX TEMP:  46;

SCAPPOOSE, OR  SUNNY     48  39  71 CALM      30.42S
6HR MIN TEMP:  32; 6HR MAX TEMP:  48;

PORTLAND, OR   MOSUNNY   48  39  71 CALM      30.43S
6HR MIN TEMP:  35; 6HR MAX TEMP:  48;

$$

WAZ021-516-517-061900-
WASHINGTON COAST

CITY           SKY/WX    TMP DP  RH WIND       PRES   REMARKS
FORKS          SUNNY     50  42  74 E3        30.40R
6HR MIN TEMP:  32; 6HR MAX TEMP:  50;

HOQUIAM        SUNNY     48  40  73 E12       30.40S HAZE
6HR MIN TEMP:  37; 6HR MAX TEMP:  48;

ASTORIA, OR    MOSUNNY   51  41  68 E3        30.39R
6HR MIN TEMP:  35; 6HR MAX TEMP:  51;

$$

WAZ019-023-024-040-518-519-061900-
CASCADE MOUNTAINS AND COLUMBIA GORGE

CITY           SKY/WX    TMP DP  RH WIND       PRES   REMARKS
TROUTDALE, OR  SUNNY     49  37  63 NE5       30.41S
6HR MIN TEMP:  34; 6HR MAX TEMP:  49;

THE DALLES, OR SUNNY     45  35  68 CALM      30.43S
6HR MIN TEMP:  34; 6HR MAX TEMP:  45;

$$

WAZ026-027-041>044-520-521-061900-
EAST SLOPES

CITY           SKY/WX    TMP DP  RH WIND       PRES   REMARKS
OMAK           PTSUNNY   46  28  49 S5        30.38F
6HR MIN TEMP:  35; 6HR MAX TEMP:  46;

WENATCHEE      CLOUDY    44  33  65 S5        30.39S
6HR MIN TEMP:  38; 6HR MAX TEMP:  44;

ELLENSBURG     NOT AVBL
YAKIMA         PTSUNNY   49  32  52 CALM      30.40S
6HR MIN TEMP:  30; 6HR MAX TEMP:  49;

$$

WAZ028-034-035-061900-
COLUMBIA BASIN

CITY           SKY/WX    TMP DP  RH WIND       PRES   REMARKS
EPHRATA        CLOUDY    44  29  55 NE3       30.39R
6HR MIN TEMP:  32; 6HR MAX TEMP:  44;

MOSES LAKE     CLOUDY    43  29  57 SW6       30.40S
6HR MIN TEMP:  29; 6HR MAX TEMP:  43;

PASCO          MOSUNNY   45  31  58 CALM      30.42F
6HR MIN TEMP:  25; 6HR MAX TEMP:  45;

HERMISTON, OR  MOSUNNY   49  32  52 CALM      30.40S
6HR MIN TEMP:  26; 6HR MAX TEMP:  49;

$$

WAZ036>038-061900-
NORTHEAST WASHINGTON

CITY           SKY/WX    TMP DP  RH WIND       PRES   REMARKS
SPOKANE GEIGER PTSUNNY   47  27  45 SE6       30.37S
6HR MIN TEMP:  33; 6HR MAX TEMP:  47;

SPOKANE FELTS  MOSUNNY   46  26  45 CALM      30.40S
6HR MIN TEMP:  28; 6HR MAX TEMP:  46;

FAIRCHILD AFB  MOSUNNY   47  28  46 VRB6      30.37S
6HR MIN TEMP:  31; 6HR MAX TEMP:  47; 6HR PCP: TRACE;

COEURDALENE,ID SUNNY     46  25  42 S6        30.38S
6HR MIN TEMP:  28; 6HR MAX TEMP:  46;

DEER PARK      MOSUNNY   43  25  49 CALM      30.39S
6HR MIN TEMP:  23; 6HR MAX TEMP:  43;

$$

WAZ029>033-061900-
SOUTHEAST WASHINGTON

CITY           SKY/WX    TMP DP  RH WIND       PRES   REMARKS
PULLMAN        SUNNY     49  25  39 E7        30.42R
6HR MIN TEMP:  33; 6HR MAX TEMP:  49;

LEWISTON, ID   SUNNY     41  28  60 CALM      30.44F
6HR MIN TEMP:  30; 6HR MAX TEMP:  41;

WALLA WALLA    SUNNY     56  28  34 W6        30.38S
6HR MIN TEMP:  37; 6HR MAX TEMP:  56;

PENDLETON, OR  SUNNY     53  26  35 SW3       30.38R
6HR MIN TEMP:  33; 6HR MAX TEMP:  54;

$$



USA.gov is the U.S. government's official web portal to all federal, state and local government web resources and services.